Location: Callanans Corners
(42.5326°N, 73.8846°W)
Time: 17:14:50
(UTC+00:00)

Cosmos 2279 Rocket - Pass Details

Date: 06 October 2022
Orbit: 963 x 979 km, 82.9° (Epoch: 05 December)

Event Time Altitude Azimuth Distance (km) Brightness Sun altitude
Rises 22:57:25 0° 351° (N) 3,688 7.1 -6.2°
Reaches altitude 10° 22:59:56 10° 350° (N) 2,737 6.5 -6.7°
Maximum altitude 23:06:13 80° 265° (W) 998 4.2 -7.8°
Drops below altitude 10° 23:12:28 10° 179° (S) 2,721 6.3 -9.0°
Sets 23:14:57 0° 178° (S) 3,664 7.0 -9.4°
